Time,TemperatureF,DewpointF,PressureIn,WindDirection,WindDirectionDegrees,WindSpeedMPH,WindSpeedGustMPH,Humidity,HourlyPrecipIn,Conditions,Clouds,dailyrainin,SoftwareType,DateUTC
2013-01-20 00:01:00,39.2,29.9,29.74,South,180,5.6,5.6,69,0.00,,,0.00,Weather8,2013-01-20 05:01:00,
2013-01-20 00:06:00,39.2,29.9,29.73,South,180,3.8,5.6,69,0.00,,,0.00,Weather8,2013-01-20 05:06:00,
2013-01-20 00:11:00,39.2,29.9,29.73,SSW,202,2.7,5.6,69,0.00,,,0.00,Weather8,2013-01-20 05:11:00,
2013-01-20 00:16:00,39.2,29.9,29.73,SSW,202,5.4,5.4,69,0.00,,,0.00,Weather8,2013-01-20 05:16:00,
2013-01-20 00:21:00,39.2,29.9,29.72,SSW,202,4.3,6.9,69,0.00,,,0.00,Weather8,2013-01-20 05:21:00,
2013-01-20 00:26:00,39.6,30.3,29.72,SSE,157,3.6,6.9,69,0.00,,,0.00,Weather8,2013-01-20 05:26:00,
2013-01-20 00:31:00,39.6,29.9,29.72,SSW,202,4.0,5.6,68,0.00,,,0.00,Weather8,2013-01-20 05:31:00,
2013-01-20 00:36:00,39.8,30.1,29.71,SSW,202,3.8,5.6,68,0.00,,,0.00,Weather8,2013-01-20 05:36:00,
2013-01-20 00:41:00,39.8,30.1,29.71,SW,225,8.3,8.3,68,0.00,,,0.00,Weather8,2013-01-20 05:41:00,
2013-01-20 00:46:00,40.0,30.3,29.71,SSW,202,2.5,8.3,68,0.00,,,0.00,Weather8,2013-01-20 05:46:00,
2013-01-20 00:51:00,40.0,30.3,29.71,South,180,3.6,8.3,68,0.00,,,0.00,Weather8,2013-01-20 05:51:00,
2013-01-20 00:52:00,39.8,30.1,29.70,SSW,202,2.7,8.3,68,0.00,,,0.00,Weather8,2013-01-20 05:52:00,
2013-01-20 00:57:00,40.0,30.3,29.70,SSW,202,3.6,7.4,68,0.00,,,0.00,Weather8,2013-01-20 05:57:00,
2013-01-20 01:02:00,40.0,30.3,29.70,SW,225,4.9,7.4,68,0.00,,,0.00,Weather8,2013-01-20 06:02:00,
2013-01-20 01:06:00,40.0,29.8,29.70,SSW,202,4.0,4.9,67,0.00,,,0.00,Weather8,2013-01-20 06:06:00,
2013-01-20 01:11:00,40.1,30.0,29.69,SW,225,5.8,5.8,67,0.00,,,0.00,Weather8,2013-01-20 06:11:00,
2013-01-20 01:16:00,40.1,30.0,29.69,SSW,202,3.8,9.4,67,0.00,,,0.00,Weather8,2013-01-20 06:16:00,
2013-01-20 01:21:00,40.1,30.0,29.69,South,180,3.1,9.4,67,0.00,,,0.00,Weather8,2013-01-20 06:21:00,
2013-01-20 01:26:00,40.1,30.0,29.69,SSW,202,4.0,4.7,67,0.00,,,0.00,Weather8,2013-01-20 06:26:00,
2013-01-20 01:31:00,40.0,29.8,29.69,SSW,202,5.4,5.4,67,0.00,,,0.00,Weather8,2013-01-20 06:31:00,
2013-01-20 01:36:00,40.1,30.0,29.68,South,180,4.9,5.4,67,0.00,,,0.00,Weather8,2013-01-20 06:36:00,
2013-01-20 01:37:00,40.1,30.0,29.68,SSW,202,2.9,5.4,67,0.00,,,0.00,Weather8,2013-01-20 06:37:00,
2013-01-20 01:42:00,40.0,30.3,29.68,SSW,202,2.0,5.4,68,0.00,,,0.00,Weather8,2013-01-20 06:42:00,
2013-01-20 01:47:00,40.0,30.3,29.68,SSW,202,5.6,5.6,68,0.00,,,0.00,Weather8,2013-01-20 06:47:00,
2013-01-20 01:52:00,40.0,30.3,29.68,SSW,202,4.0,5.6,68,0.00,,,0.00,Weather8,2013-01-20 06:52:00,
2013-01-20 01:57:00,40.0,30.3,29.68,SSW,202,4.0,5.6,68,0.00,,,0.00,Weather8,2013-01-20 06:57:00,
2013-01-20 02:02:00,40.0,30.3,29.68,SW,225,2.2,4.9,68,0.00,,,0.00,Weather8,2013-01-20 07:02:00,
2013-01-20 02:07:00,40.0,30.3,29.68,SSW,202,4.0,5.6,68,0.00,,,0.00,Weather8,2013-01-20 07:07:00,
2013-01-20 02:12:00,40.0,30.3,29.68,SW,225,3.1,5.6,68,0.00,,,0.00,Weather8,2013-01-20 07:12:00,
2013-01-20 02:17:00,40.0,30.3,29.67,SSW,202,3.8,5.6,68,0.00,,,0.00,Weather8,2013-01-20 07:17:00,
2013-01-20 02:22:00,40.0,30.3,29.67,SSW,202,5.4,5.4,68,0.00,,,0.00,Weather8,2013-01-20 07:22:00,
2013-01-20 02:27:00,40.0,30.3,29.67,SSW,202,3.4,5.4,68,0.00,,,0.00,Weather8,2013-01-20 07:27:00,
2013-01-20 02:32:00,39.8,30.1,29.66,South,180,3.8,5.4,68,0.00,,,0.00,Weather8,2013-01-20 07:32:00,
2013-01-20 02:37:00,40.0,30.3,29.66,SSW,202,3.4,6.7,68,0.00,,,0.00,Weather8,2013-01-20 07:37:00,
2013-01-20 02:42:00,40.0,30.3,29.66,SW,225,3.1,6.9,68,0.00,,,0.00,Weather8,2013-01-20 07:42:00,
2013-01-20 02:47:00,40.0,30.3,29.66,South,180,3.1,6.9,68,0.00,,,0.00,Weather8,2013-01-20 07:47:00,
2013-01-20 02:52:00,40.0,30.3,29.66,SW,225,2.9,6.9,68,0.00,,,0.00,Weather8,2013-01-20 07:52:00,
2013-01-20 02:57:00,40.0,30.3,29.66,WSW,247,2.9,4.7,68,0.00,,,0.00,Weather8,2013-01-20 07:57:00,
2013-01-20 03:02:00,40.0,30.3,29.65,SSE,157,2.9,5.1,68,0.00,,,0.00,Weather8,2013-01-20 08:02:00,
2013-01-20 03:07:00,40.0,30.3,29.65,South,180,3.4,5.1,68,0.00,,,0.00,Weather8,2013-01-20 08:07:00,
2013-01-20 03:12:00,40.0,30.3,29.65,SW,225,1.3,4.3,68,0.00,,,0.00,Weather8,2013-01-20 08:12:00,
2013-01-20 03:17:00,40.0,30.3,29.65,SSW,202,3.6,4.3,68,0.00,,,0.00,Weather8,2013-01-20 08:17:00,
2013-01-20 03:22:00,40.0,30.3,29.65,SW,225,2.5,6.9,68,0.00,,,0.00,Weather8,2013-01-20 08:22:00,
2013-01-20 03:27:00,40.0,30.3,29.64,SSW,202,3.1,6.9,68,0.00,,,0.00,Weather8,2013-01-20 08:27:00,
2013-01-20 03:32:00,40.1,30.4,29.65,SSW,202,3.6,6.9,68,0.00,,,0.00,Weather8,2013-01-20 08:32:00,
2013-01-20 03:37:00,40.3,30.2,29.65,WSW,247,3.4,6.9,67,0.00,,,0.00,Weather8,2013-01-20 08:37:00,
2013-01-20 03:42:00,40.3,30.2,29.64,West,270,2.7,6.7,67,0.00,,,0.00,Weather8,2013-01-20 08:42:00,
2013-01-20 03:47:00,40.3,30.2,29.64,SSW,202,1.8,5.6,67,0.00,,,0.00,Weather8,2013-01-20 08:47:00,
2013-01-20 03:52:00,40.3,30.2,29.64,South,180,3.6,4.7,67,0.00,,,0.00,Weather8,2013-01-20 08:52:00,
2013-01-20 03:57:00,40.5,30.3,29.64,SSW,202,2.0,5.8,67,0.00,,,0.00,Weather8,2013-01-20 08:57:00,
2013-01-20 04:02:00,40.7,30.5,29.63,SW,225,5.8,5.8,67,0.00,,,0.00,Weather8,2013-01-20 09:02:00,
2013-01-20 04:07:00,40.7,30.5,29.63,SW,225,4.7,5.8,67,0.00,,,0.00,Weather8,2013-01-20 09:07:00,
2013-01-20 04:12:00,40.7,30.5,29.63,SW,225,3.8,5.8,67,0.00,,,0.00,Weather8,2013-01-20 09:12:00,
2013-01-20 04:17:00,40.9,30.7,29.63,SW,225,8.9,8.9,67,0.00,,,0.00,Weather8,2013-01-20 09:17:00,
2013-01-20 04:22:00,40.9,30.7,29.62,SW,225,5.6,8.9,67,0.00,,,0.00,Weather8,2013-01-20 09:22:00,
2013-01-20 04:27:00,40.9,30.7,29.62,SSW,202,3.4,8.9,67,0.00,,,0.00,Weather8,2013-01-20 09:27:00,
2013-01-20 04:32:00,40.9,30.7,29.62,WSW,247,3.4,5.8,67,0.00,,,0.00,Weather8,2013-01-20 09:32:00,
2013-01-20 04:37:00,41.0,30.9,29.62,SW,225,2.5,4.9,67,0.00,,,0.00,Weather8,2013-01-20 09:37:00,
2013-01-20 04:42:00,41.0,30.9,29.62,SSW,202,4.7,4.9,67,0.00,,,0.00,Weather8,2013-01-20 09:42:00,
2013-01-20 04:47:00,40.9,30.7,29.62,SW,225,2.2,4.9,67,0.00,,,0.00,Weather8,2013-01-20 09:47:00,
2013-01-20 04:52:00,40.9,30.7,29.62,South,180,2.7,6.9,67,0.00,,,0.00,Weather8,2013-01-20 09:52:00,
2013-01-20 04:57:00,40.9,30.7,29.62,SSW,202,2.5,6.9,67,0.00,,,0.00,Weather8,2013-01-20 09:57:00,
2013-01-20 05:02:00,40.9,30.7,29.61,SW,225,4.3,6.5,67,0.00,,,0.00,Weather8,2013-01-20 10:02:00,
2013-01-20 05:07:00,40.9,30.7,29.61,SSW,202,7.6,7.6,67,0.00,,,0.00,Weather8,2013-01-20 10:07:00,
2013-01-20 05:12:00,40.9,30.7,29.61,SSW,202,3.1,7.6,67,0.00,,,0.00,Weather8,2013-01-20 10:12:00,
2013-01-20 05:17:00,40.9,30.7,29.61,SW,225,2.2,7.6,67,0.00,,,0.00,Weather8,2013-01-20 10:17:00,
2013-01-20 05:22:00,40.7,30.5,29.61,SSW,202,2.7,4.0,67,0.00,,,0.00,Weather8,2013-01-20 10:22:00,
2013-01-20 05:27:00,40.9,30.7,29.60,SSW,202,3.4,5.8,67,0.00,,,0.00,Weather8,2013-01-20 10:27:00,
2013-01-20 05:32:00,40.9,30.7,29.60,South,180,2.9,6.9,67,0.00,,,0.00,Weather8,2013-01-20 10:32:00,
2013-01-20 05:37:00,40.9,30.7,29.60,SW,225,4.5,6.9,67,0.00,,,0.00,Weather8,2013-01-20 10:37:00,
2013-01-20 05:42:00,40.9,30.7,29.60,WSW,247,4.0,6.7,67,0.00,,,0.00,Weather8,2013-01-20 10:42:00,
2013-01-20 05:47:00,40.9,30.7,29.59,South,180,4.0,6.7,67,0.00,,,0.00,Weather8,2013-01-20 10:47:00,
2013-01-20 05:52:00,40.7,30.5,29.59,WNW,292,3.1,6.7,67,0.00,,,0.00,Weather8,2013-01-20 10:52:00,
2013-01-20 05:57:00,40.9,30.7,29.59,WSW,247,5.1,7.6,67,0.00,,,0.00,Weather8,2013-01-20 10:57:00,
2013-01-20 06:02:00,40.9,30.7,29.59,SSW,202,6.3,7.6,67,0.00,,,0.00,Weather8,2013-01-20 11:02:00,
2013-01-20 06:07:00,40.9,30.7,29.59,WNW,292,2.5,10.1,67,0.00,,,0.00,Weather8,2013-01-20 11:07:00,
2013-01-20 06:12:00,40.9,30.7,29.59,SSW,202,4.7,10.1,67,0.00,,,0.00,Weather8,2013-01-20 11:12:00,
2013-01-20 06:17:00,41.0,30.9,29.59,SSE,157,1.6,6.7,67,0.00,,,0.00,Weather8,2013-01-20 11:17:00,
2013-01-20 06:22:00,40.9,30.7,29.59,WSW,247,1.8,6.7,67,0.00,,,0.00,Weather8,2013-01-20 11:22:00,
2013-01-20 06:27:00,40.9,30.7,29.59,South,180,5.6,5.6,67,0.00,,,0.00,Weather8,2013-01-20 11:27:00,
2013-01-20 06:32:00,40.7,30.5,29.58,SW,225,4.7,5.6,67,0.00,,,0.00,Weather8,2013-01-20 11:32:00,
2013-01-20 06:38:00,40.7,30.5,29.58,South,180,4.5,6.9,67,0.00,,,0.00,Weather8,2013-01-20 11:38:00,
2013-01-20 06:43:00,40.7,30.5,29.58,SW,225,5.4,6.9,67,0.00,,,0.00,Weather8,2013-01-20 11:43:00,
2013-01-20 06:48:00,40.7,30.5,29.58,SSW,202,4.5,5.4,67,0.00,,,0.00,Weather8,2013-01-20 11:48:00,
2013-01-20 06:53:00,40.7,30.5,29.58,SSW,202,2.5,5.4,67,0.00,,,0.00,Weather8,2013-01-20 11:53:00,
2013-01-20 06:58:00,40.7,30.5,29.59,South,180,2.5,4.7,67,0.00,,,0.00,Weather8,2013-01-20 11:58:00,
2013-01-20 07:03:00,40.5,30.3,29.58,SSW,202,3.4,4.9,67,0.00,,,0.00,Weather8,2013-01-20 12:03:00,
2013-01-20 07:23:00,40.3,30.2,29.58,SSW,202,2.9,2.9,67,0.00,,,0.00,Weather8,2013-01-20 12:23:00,
2013-01-20 07:28:00,40.3,30.2,29.59,SSW,202,4.3,4.3,67,0.00,,,0.00,Weather8,2013-01-20 12:28:00,
2013-01-20 07:33:00,40.3,30.2,29.59,West,270,1.8,4.3,67,0.00,,,0.00,Weather8,2013-01-20 12:33:00,
2013-01-20 07:38:00,40.1,30.0,29.59,WSW,247,2.0,4.3,67,0.00,,,0.00,Weather8,2013-01-20 12:38:00,
2013-01-20 07:43:00,40.1,30.0,29.59,SW,225,2.7,4.0,67,0.00,,,0.00,Weather8,2013-01-20 12:43:00,
2013-01-20 07:48:00,40.1,30.0,29.58,SW,225,3.8,4.0,67,0.00,,,0.00,Weather8,2013-01-20 12:48:00,
2013-01-20 07:53:00,40.3,30.2,29.58,SW,225,4.5,4.5,67,0.00,,,0.00,Weather8,2013-01-20 12:53:00,
2013-01-20 07:58:00,40.3,30.2,29.58,WSW,247,3.1,4.5,67,0.00,,,0.00,Weather8,2013-01-20 12:58:00,
2013-01-20 08:03:00,40.7,30.5,29.58,SW,225,6.9,6.9,67,0.00,,,0.00,Weather8,2013-01-20 13:03:00,
2013-01-20 08:08:00,40.7,30.5,29.58,SW,225,3.1,6.9,67,0.00,,,0.00,Weather8,2013-01-20 13:08:00,
2013-01-20 08:13:00,41.0,30.9,29.58,SSW,202,3.8,6.9,67,0.00,,,0.00,Weather8,2013-01-20 13:13:00,
2013-01-20 08:18:00,41.2,30.7,29.57,WSW,247,1.8,6.3,66,0.00,,,0.00,Weather8,2013-01-20 13:18:00,
2013-01-20 08:23:00,41.6,31.1,29.58,SSW,202,5.4,7.8,66,0.00,,,0.00,Weather8,2013-01-20 13:23:00,
2013-01-20 08:28:00,41.9,31.0,29.58,SSW,202,2.2,7.8,65,0.00,,,0.00,Weather8,2013-01-20 13:28:00,
2013-01-20 08:33:00,42.3,31.0,29.58,South,180,6.5,6.5,64,0.00,,,0.00,Weather8,2013-01-20 13:33:00,
2013-01-20 08:38:00,42.8,31.1,29.58,SSW,202,4.7,6.5,63,0.00,,,0.00,Weather8,2013-01-20 13:38:00,
2013-01-20 08:43:00,42.8,31.1,29.58,WSW,247,4.7,6.5,63,0.00,,,0.00,Weather8,2013-01-20 13:43:00,
2013-01-20 08:48:00,43.2,31.4,29.58,SSW,202,2.0,4.7,63,0.00,,,0.00,Weather8,2013-01-20 13:48:00,
2013-01-20 08:53:00,43.6,31.4,29.58,SW,225,8.5,8.5,62,0.00,,,0.00,Weather8,2013-01-20 13:53:00,
2013-01-20 08:58:00,43.9,31.8,29.58,SW,225,2.5,8.5,62,0.00,,,0.00,Weather8,2013-01-20 13:58:00,
2013-01-20 09:03:00,44.1,31.5,29.58,South,180,5.8,9.6,61,0.00,,,0.00,Weather8,2013-01-20 14:03:00,
2013-01-20 09:08:00,44.3,31.3,29.58,SSW,202,4.0,9.6,60,0.00,,,0.00,Weather8,2013-01-20 14:08:00,
2013-01-20 09:13:00,44.6,31.2,29.58,SSW,202,8.1,8.1,59,0.00,,,0.00,Weather8,2013-01-20 14:13:00,
2013-01-20 09:18:00,45.0,31.6,29.58,SSW,202,7.8,8.1,59,0.00,,,0.00,Weather8,2013-01-20 14:18:00,
2013-01-20 09:23:00,45.4,31.9,29.58,SSW,202,4.5,8.1,59,0.00,,,0.00,Weather8,2013-01-20 14:23:00,
2013-01-20 09:28:00,45.7,31.8,29.59,West,270,1.8,7.8,58,0.00,,,0.00,Weather8,2013-01-20 14:28:00,
2013-01-20 09:33:00,46.3,32.2,29.59,SSW,202,3.4,6.7,58,0.00,,,0.00,Weather8,2013-01-20 14:33:00,
2013-01-20 09:38:00,46.6,32.6,29.59,SSW,202,1.6,6.3,58,0.00,,,0.00,Weather8,2013-01-20 14:38:00,
2013-01-20 09:43:00,46.8,32.3,29.59,South,180,4.3,5.1,57,0.00,,,0.00,Weather8,2013-01-20 14:43:00,
2013-01-20 09:48:00,47.5,33.0,29.59,NW,315,1.6,9.2,57,0.00,,,0.00,Weather8,2013-01-20 14:48:00,
2013-01-20 09:53:00,47.9,33.4,29.59,SSW,202,2.9,9.2,57,0.00,,,0.00,Weather8,2013-01-20 14:53:00,
2013-01-20 09:58:00,48.2,33.2,29.59,NNW,337,3.4,9.2,56,0.00,,,0.00,Weather8,2013-01-20 14:58:00,
2013-01-20 10:03:00,48.8,32.9,29.59,SW,225,5.4,5.4,54,0.00,,,0.00,Weather8,2013-01-20 15:03:00,
2013-01-20 10:08:00,49.3,33.3,29.60,SW,225,2.5,6.9,54,0.00,,,0.00,Weather8,2013-01-20 15:08:00,
2013-01-20 10:13:00,49.7,33.7,29.60,South,180,2.7,6.9,54,0.00,,,0.00,Weather8,2013-01-20 15:13:00,
2013-01-20 10:18:00,50.4,33.5,29.59,SSW,202,5.8,6.9,52,0.00,,,0.00,Weather8,2013-01-20 15:18:00,
2013-01-20 10:23:00,50.9,33.9,29.59,West,270,1.1,6.7,52,0.00,,,0.00,Weather8,2013-01-20 15:23:00,
2013-01-20 10:28:00,51.3,33.4,29.59,WNW,292,2.0,6.7,50,0.00,,,0.00,Weather8,2013-01-20 15:28:00,
2013-01-20 10:33:00,51.8,33.8,29.59,WNW,292,2.7,4.0,50,0.00,,,0.00,Weather8,2013-01-20 15:33:00,
2013-01-20 10:38:00,52.2,34.2,29.58,SW,225,1.8,4.0,50,0.00,,,0.00,Weather8,2013-01-20 15:38:00,
2013-01-20 10:43:00,52.9,34.3,29.58,SSW,202,3.8,6.5,49,0.00,,,0.00,Weather8,2013-01-20 15:43:00,
2013-01-20 10:48:00,53.3,33.0,29.58,SSW,202,5.4,6.9,46,0.00,,,0.00,Weather8,2013-01-20 15:48:00,
2013-01-20 10:53:00,53.6,33.8,29.58,West,270,1.1,6.9,47,0.00,,,0.00,Weather8,2013-01-20 15:53:00,
2013-01-20 10:58:00,54.2,33.8,29.58,SW,225,1.8,6.9,46,0.00,,,0.00,Weather8,2013-01-20 15:58:00,
2013-01-20 11:03:00,54.7,34.2,29.57,SSW,202,4.3,5.4,46,0.00,,,0.00,Weather8,2013-01-20 16:03:00,
2013-01-20 11:08:00,55.1,34.6,29.57,WNW,292,1.1,5.4,46,0.00,,,0.00,Weather8,2013-01-20 16:08:00,
2013-01-20 11:13:00,55.4,34.3,29.56,West,270,1.6,6.9,45,0.00,,,0.00,Weather8,2013-01-20 16:13:00,
2013-01-20 11:18:00,55.8,34.1,29.56,SW,225,2.5,7.2,44,0.00,,,0.00,Weather8,2013-01-20 16:18:00,
2013-01-20 11:23:00,55.8,34.1,29.56,SW,225,2.5,7.2,44,0.00,,,0.00,Weather8,2013-01-20 16:23:00,
2013-01-20 11:28:00,55.8,34.1,29.55,SW,225,2.5,5.6,44,0.00,,,0.00,Weather8,2013-01-20 16:28:00,
2013-01-20 11:33:00,57.1,34.7,29.55,SSW,202,5.1,5.1,43,0.00,,,0.00,Weather8,2013-01-20 16:33:00,
2013-01-20 11:38:00,57.4,33.8,29.54,WSW,247,2.0,5.4,41,0.00,,,0.00,Weather8,2013-01-20 16:38:00,
2013-01-20 11:43:00,57.4,33.3,29.54,WSW,247,4.0,8.7,40,0.00,,,0.00,Weather8,2013-01-20 16:43:00,
2013-01-20 11:48:00,57.4,33.8,29.54,SW,225,2.9,8.7,41,0.00,,,0.00,Weather8,2013-01-20 16:48:00,
2013-01-20 11:53:00,57.8,33.0,29.54,SW,225,3.4,12.5,39,0.00,,,0.00,Weather8,2013-01-20 16:53:00,
2013-01-20 11:58:00,57.2,33.1,29.53,SSW,202,3.1,12.5,40,0.00,,,0.00,Weather8,2013-01-20 16:58:00,
2013-01-20 12:03:00,57.1,33.6,29.53,SW,225,6.3,12.1,41,0.00,,,0.00,Weather8,2013-01-20 17:03:00,
2013-01-20 12:08:00,57.1,32.9,29.53,WNW,292,6.0,8.7,40,0.00,,,0.00,Weather8,2013-01-20 17:08:00,
2013-01-20 12:13:00,57.2,33.7,29.53,NW,315,6.0,8.7,41,0.00,,,0.00,Weather8,2013-01-20 17:13:00,
2013-01-20 12:18:00,57.2,33.1,29.53,SSW,202,3.6,9.2,40,0.00,,,0.00,Weather8,2013-01-20 17:18:00,
2013-01-20 12:23:00,57.2,33.1,29.53,SW,225,2.2,9.2,40,0.00,,,0.00,Weather8,2013-01-20 17:23:00,
2013-01-20 12:28:00,57.6,32.8,29.53,SW,225,4.7,6.5,39,0.00,,,0.00,Weather8,2013-01-20 17:28:00,
2013-01-20 12:33:00,57.6,32.8,29.53,NNW,337,3.6,6.7,39,0.00,,,0.00,Weather8,2013-01-20 17:33:00,
2013-01-20 12:38:00,57.4,31.9,29.52,West,270,9.8,9.8,38,0.00,,,0.00,Weather8,2013-01-20 17:38:00,
2013-01-20 12:43:00,57.2,32.4,29.52,NNW,337,2.9,9.8,39,0.00,,,0.00,Weather8,2013-01-20 17:43:00,
2013-01-20 12:48:00,57.2,33.1,29.53,West,270,6.0,9.8,40,0.00,,,0.00,Weather8,2013-01-20 17:48:00,
2013-01-20 12:53:00,57.2,31.7,29.52,NW,315,8.1,8.1,38,0.00,,,0.00,Weather8,2013-01-20 17:53:00,
2013-01-20 12:58:00,57.2,32.4,29.52,NW,315,4.7,8.1,39,0.00,,,0.00,Weather8,2013-01-20 17:58:00,
2013-01-20 13:03:00,57.2,32.4,29.52,WSW,247,3.8,8.1,39,0.00,,,0.00,Weather8,2013-01-20 18:03:00,
2013-01-20 13:08:00,57.1,32.2,29.52,SW,225,6.5,6.9,39,0.00,,,0.00,Weather8,2013-01-20 18:08:00,
2013-01-20 13:13:00,57.1,32.9,29.53,West,270,4.9,9.2,40,0.00,,,0.00,Weather8,2013-01-20 18:13:00,
2013-01-20 13:18:00,57.1,32.2,29.52,SW,225,8.3,9.2,39,0.00,,,0.00,Weather8,2013-01-20 18:18:00,
2013-01-20 13:23:00,56.9,32.1,29.52,WNW,292,4.9,9.2,39,0.00,,,0.00,Weather8,2013-01-20 18:23:00,
2013-01-20 13:28:00,56.9,32.1,29.52,North,0,3.8,10.1,39,0.00,,,0.00,Weather8,2013-01-20 18:28:00,
2013-01-20 13:33:00,56.9,33.4,29.52,SSE,157,1.1,10.1,41,0.00,,,0.00,Weather8,2013-01-20 18:33:00,
2013-01-20 13:38:00,57.2,32.4,29.52,WNW,292,4.3,10.1,39,0.00,,,0.00,Weather8,2013-01-20 18:38:00,
2013-01-20 13:43:00,57.2,31.7,29.52,NW,315,10.5,10.5,38,0.00,,,0.00,Weather8,2013-01-20 18:43:00,
2013-01-20 13:48:00,57.1,31.6,29.52,West,270,7.2,10.5,38,0.00,,,0.00,Weather8,2013-01-20 18:48:00,
2013-01-20 13:53:00,56.9,31.4,29.52,NNW,337,4.0,10.5,38,0.00,,,0.00,Weather8,2013-01-20 18:53:00,
2013-01-20 13:58:00,56.7,30.5,29.52,West,270,10.5,10.5,37,0.00,,,0.00,Weather8,2013-01-20 18:58:00,
2013-01-20 14:03:00,56.5,31.1,29.53,NW,315,6.9,10.5,38,0.00,,,0.00,Weather8,2013-01-20 19:03:00,
2013-01-20 14:08:00,56.5,31.1,29.53,West,270,6.5,10.5,38,0.00,,,0.00,Weather8,2013-01-20 19:08:00,
2013-01-20 14:13:00,56.3,31.6,29.53,WSW,247,7.2,7.2,39,0.00,,,0.00,Weather8,2013-01-20 19:13:00,
2013-01-20 14:18:00,56.2,31.4,29.53,WSW,247,1.8,9.4,39,0.00,,,0.00,Weather8,2013-01-20 19:18:00,
2013-01-20 14:23:00,56.0,31.3,29.53,West,270,4.0,9.4,39,0.00,,,0.00,Weather8,2013-01-20 19:23:00,
2013-01-20 14:28:00,56.0,31.3,29.53,West,270,3.1,9.4,39,0.00,,,0.00,Weather8,2013-01-20 19:28:00,
2013-01-20 14:33:00,56.0,32.0,29.53,North,0,3.8,8.5,40,0.00,,,0.00,Weather8,2013-01-20 19:33:00,
2013-01-20 14:38:00,56.0,31.3,29.53,West,270,3.4,7.2,39,0.00,,,0.00,Weather8,2013-01-20 19:38:00,
2013-01-20 14:43:00,56.0,32.0,29.53,WSW,247,4.7,4.7,40,0.00,,,0.00,Weather8,2013-01-20 19:43:00,
2013-01-20 14:48:00,56.0,32.0,29.54,West,270,4.0,4.7,40,0.00,,,0.00,Weather8,2013-01-20 19:48:00,
2013-01-20 14:53:00,55.8,31.9,29.55,West,270,4.7,4.7,40,0.00,,,0.00,Weather8,2013-01-20 19:53:00,
2013-01-20 14:58:00,55.6,32.2,29.55,NW,315,4.0,4.7,41,0.00,,,0.00,Weather8,2013-01-20 19:58:00,
2013-01-20 15:03:00,55.6,32.2,29.55,SW,225,4.3,6.3,41,0.00,,,0.00,Weather8,2013-01-20 20:03:00,
2013-01-20 15:08:00,55.6,31.7,29.55,NNW,337,4.0,6.9,40,0.00,,,0.00,Weather8,2013-01-20 20:08:00,
2013-01-20 15:13:00,55.3,31.3,29.55,WSW,247,5.4,9.6,40,0.00,,,0.00,Weather8,2013-01-20 20:13:00,
2013-01-20 15:18:00,55.3,30.6,29.56,NW,315,5.4,9.6,39,0.00,,,0.00,Weather8,2013-01-20 20:18:00,
2013-01-20 15:23:00,55.3,30.6,29.56,WSW,247,3.1,9.6,39,0.00,,,0.00,Weather8,2013-01-20 20:23:00,
2013-01-20 15:28:00,55.4,30.8,29.56,WNW,292,3.6,6.5,39,0.00,,,0.00,Weather8,2013-01-20 20:28:00,
2013-01-20 15:33:00,55.3,29.3,29.56,West,270,5.1,6.5,37,0.00,,,0.00,Weather8,2013-01-20 20:33:00,
2013-01-20 15:38:00,55.1,28.4,29.56,West,270,5.1,8.5,36,0.00,,,0.00,Weather8,2013-01-20 20:38:00,
2013-01-20 15:43:00,54.9,28.3,29.57,NW,315,5.8,8.5,36,0.00,,,0.00,Weather8,2013-01-20 20:43:00,
2013-01-20 15:48:00,54.7,28.1,29.57,NW,315,6.9,7.2,36,0.00,,,0.00,Weather8,2013-01-20 20:48:00,
2013-01-20 15:53:00,54.5,27.3,29.57,NNW,337,3.8,7.4,35,0.00,,,0.00,Weather8,2013-01-20 20:53:00,
2013-01-20 15:58:00,54.5,25.8,29.58,West,270,3.4,7.4,33,0.00,,,0.00,Weather8,2013-01-20 20:58:00,
2013-01-20 16:03:00,54.4,26.4,29.58,NNW,337,5.4,8.5,34,0.00,,,0.00,Weather8,2013-01-20 21:03:00,
2013-01-20 16:08:00,54.0,24.7,29.58,NW,315,6.0,8.5,32,0.00,,,0.00,Weather8,2013-01-20 21:08:00,
2013-01-20 16:13:00,54.0,26.1,29.58,WNW,292,3.1,8.5,34,0.00,,,0.00,Weather8,2013-01-20 21:13:00,
2013-01-20 16:18:00,53.6,26.5,29.59,NW,315,4.9,6.9,35,0.00,,,0.00,Weather8,2013-01-20 21:18:00,
2013-01-20 16:23:00,53.5,27.0,29.59,North,0,3.4,7.4,36,0.00,,,0.00,Weather8,2013-01-20 21:23:00,
2013-01-20 16:28:00,52.9,27.2,29.60,NW,315,4.3,7.6,37,0.00,,,0.00,Weather8,2013-01-20 21:28:00,
2013-01-20 16:33:00,52.6,26.8,29.61,NW,315,3.1,7.6,37,0.00,,,0.00,Weather8,2013-01-20 21:33:00,
2013-01-20 16:38:00,52.4,26.0,29.61,NW,315,4.3,4.5,36,0.00,,,0.00,Weather8,2013-01-20 21:38:00,
2013-01-20 16:43:00,52.0,25.7,29.61,NW,315,5.1,6.5,36,0.00,,,0.00,Weather8,2013-01-20 21:43:00,
2013-01-20 16:48:00,51.7,25.4,29.61,West,270,2.7,6.7,36,0.00,,,0.00,Weather8,2013-01-20 21:48:00,
2013-01-20 16:53:00,51.5,24.5,29.62,NW,315,9.8,9.8,35,0.00,,,0.00,Weather8,2013-01-20 21:53:00,
2013-01-20 16:58:00,51.1,23.5,29.62,WSW,247,4.3,9.8,34,0.00,,,0.00,Weather8,2013-01-20 21:58:00,
2013-01-20 17:03:00,50.8,22.5,29.63,WNW,292,8.5,9.8,33,0.00,,,0.00,Weather8,2013-01-20 22:03:00,
2013-01-20 17:08:00,50.4,22.1,29.64,NNW,337,7.8,8.5,33,0.00,,,0.00,Weather8,2013-01-20 22:08:00,
2013-01-20 17:13:00,50.2,22.7,29.64,NW,315,4.7,8.5,34,0.00,,,0.00,Weather8,2013-01-20 22:13:00,
2013-01-20 17:18:00,50.0,22.5,29.64,WSW,247,2.9,7.8,34,0.00,,,0.00,Weather8,2013-01-20 22:18:00,
2013-01-20 17:23:00,49.7,21.5,29.65,WNW,292,3.8,8.5,33,0.00,,,0.00,Weather8,2013-01-20 22:23:00,
2013-01-20 17:28:00,49.3,22.0,29.65,NW,315,3.6,8.5,34,0.00,,,0.00,Weather8,2013-01-20 22:28:00,
2013-01-20 17:33:00,49.3,21.2,29.66,WNW,292,3.8,4.5,33,0.00,,,0.00,Weather8,2013-01-20 22:33:00,
2013-01-20 17:38:00,49.0,21.6,29.66,NNW,337,4.0,9.4,34,0.00,,,0.00,Weather8,2013-01-20 22:38:00,
2013-01-20 17:43:00,48.6,20.7,29.66,WSW,247,4.0,9.4,33,0.00,,,0.00,Weather8,2013-01-20 22:43:00,
2013-01-20 17:48:00,48.4,20.5,29.66,NW,315,4.5,6.5,33,0.00,,,0.00,Weather8,2013-01-20 22:48:00,
2013-01-20 17:53:00,48.2,19.7,29.67,WNW,292,4.0,6.5,32,0.00,,,0.00,Weather8,2013-01-20 22:53:00,
2013-01-20 17:58:00,48.1,19.5,29.68,NNW,337,3.6,6.7,32,0.00,,,0.00,Weather8,2013-01-20 22:58:00,
2013-01-20 18:03:00,47.9,18.7,29.68,NNW,337,4.5,8.3,31,0.00,,,0.00,Weather8,2013-01-20 23:03:00,
2013-01-20 18:08:00,47.5,18.4,29.68,NNW,337,3.6,8.3,31,0.00,,,0.00,Weather8,2013-01-20 23:08:00,
2013-01-20 18:13:00,47.3,18.2,29.68,NW,315,8.5,8.5,31,0.00,,,0.00,Weather8,2013-01-20 23:13:00,
2013-01-20 18:18:00,47.2,18.7,29.69,WNW,292,5.8,8.5,32,0.00,,,0.00,Weather8,2013-01-20 23:18:00,
2013-01-20 18:23:00,47.0,18.5,29.69,NW,315,4.0,8.5,32,0.00,,,0.00,Weather8,2013-01-20 23:23:00,
2013-01-20 18:28:00,46.6,18.3,29.69,NW,315,7.6,8.1,32,0.00,,,0.00,Weather8,2013-01-20 23:28:00,
2013-01-20 18:33:00,46.4,17.4,29.70,NW,315,3.8,8.9,31,0.00,,,0.00,Weather8,2013-01-20 23:33:00,
2013-01-20 18:38:00,46.3,17.9,29.70,NW,315,2.7,8.9,32,0.00,,,0.00,Weather8,2013-01-20 23:38:00,
2013-01-20 18:43:00,45.9,18.3,29.71,WNW,292,9.2,9.2,33,0.00,,,0.00,Weather8,2013-01-20 23:43:00,
2013-01-20 18:48:00,45.7,18.1,29.71,North,0,1.8,9.2,33,0.00,,,0.00,Weather8,2013-01-20 23:48:00,
2013-01-20 18:53:00,45.4,18.5,29.71,WNW,292,4.0,9.2,34,0.00,,,0.00,Weather8,2013-01-20 23:53:00,
2013-01-20 18:58:00,45.0,17.5,29.71,WNW,292,2.7,6.7,33,0.00,,,0.00,Weather8,2013-01-20 23:58:00,
2013-01-20 19:03:00,44.8,17.3,29.72,NW,315,6.0,8.5,33,0.00,,,0.00,Weather8,2013-01-21 00:03:00,
2013-01-20 19:08:00,44.5,16.9,29.72,NNW,337,4.7,8.5,33,0.00,,,0.00,Weather8,2013-01-21 00:08:00,
2013-01-20 19:13:00,44.3,17.5,29.72,WNW,292,7.6,8.5,34,0.00,,,0.00,Weather8,2013-01-21 00:13:00,
2013-01-20 19:18:00,44.1,18.0,29.72,West,270,4.9,8.5,35,0.00,,,0.00,Weather8,2013-01-21 00:18:00,
2013-01-20 19:23:00,43.9,17.8,29.73,NW,315,6.3,8.5,35,0.00,,,0.00,Weather8,2013-01-21 00:23:00,
2013-01-20 19:28:00,43.6,17.5,29.73,NNW,337,4.3,8.7,35,0.00,,,0.00,Weather8,2013-01-21 00:28:00,
2013-01-20 19:33:00,43.4,17.3,29.73,NNW,337,2.9,9.2,35,0.00,,,0.00,Weather8,2013-01-21 00:33:00,
2013-01-20 19:38:00,43.0,17.0,29.73,NW,315,3.1,10.5,35,0.00,,,0.00,Weather8,2013-01-21 00:38:00,
2013-01-20 19:43:00,42.8,16.8,29.74,NNW,337,5.6,10.5,35,0.00,,,0.00,Weather8,2013-01-21 00:43:00,
2013-01-20 19:48:00,42.7,17.4,29.74,NW,315,5.8,8.5,36,0.00,,,0.00,Weather8,2013-01-21 00:48:00,
2013-01-20 19:53:00,42.3,17.0,29.74,NNW,337,4.7,8.7,36,0.00,,,0.00,Weather8,2013-01-21 00:53:00,
2013-01-20 19:58:00,42.1,16.9,29.74,NNW,337,4.3,8.7,36,0.00,,,0.00,Weather8,2013-01-21 00:58:00,
2013-01-20 20:03:00,41.8,16.6,29.74,NNW,337,6.5,7.8,36,0.00,,,0.00,Weather8,2013-01-21 01:03:00,
2013-01-20 20:08:00,41.6,17.1,29.74,North,0,4.5,7.8,37,0.00,,,0.00,Weather8,2013-01-21 01:08:00,
2013-01-20 20:13:00,41.4,16.9,29.74,NNW,337,2.9,6.9,37,0.00,,,0.00,Weather8,2013-01-21 01:13:00,
2013-01-20 20:18:00,41.2,17.4,29.75,NW,315,1.1,5.1,38,0.00,,,0.00,Weather8,2013-01-21 01:18:00,
2013-01-20 20:23:00,40.9,17.7,29.76,NW,315,6.5,6.5,39,0.00,,,0.00,Weather8,2013-01-21 01:23:00,
2013-01-20 20:28:00,40.7,17.6,29.76,NNW,337,3.8,6.5,39,0.00,,,0.00,Weather8,2013-01-21 01:28:00,
2013-01-20 20:33:00,40.5,17.4,29.76,NW,315,5.1,7.2,39,0.00,,,0.00,Weather8,2013-01-21 01:33:00,
2013-01-20 20:38:00,40.3,17.3,29.77,WNW,292,2.9,7.2,39,0.00,,,0.00,Weather8,2013-01-21 01:38:00,
2013-01-20 20:43:00,40.1,17.1,29.77,NNW,337,8.5,8.5,39,0.00,,,0.00,Weather8,2013-01-21 01:43:00,
2013-01-20 20:48:00,40.0,16.9,29.77,NW,315,6.3,12.8,39,0.00,,,0.00,Weather8,2013-01-21 01:48:00,
2013-01-20 20:53:00,39.6,16.6,29.78,NW,315,4.7,12.8,39,0.00,,,0.00,Weather8,2013-01-21 01:53:00,
2013-01-20 20:58:00,39.2,16.9,29.78,WNW,292,3.4,8.7,40,0.00,,,0.00,Weather8,2013-01-21 01:58:00,
2013-01-20 21:03:00,39.1,16.1,29.78,NW,315,10.3,10.3,39,0.00,,,0.00,Weather8,2013-01-21 02:03:00,
2013-01-20 21:08:00,38.9,15.9,29.78,NW,315,2.7,10.3,39,0.00,,,0.00,Weather8,2013-01-21 02:08:00,
2013-01-20 21:13:00,38.5,15.7,29.78,West,270,4.5,10.3,39,0.00,,,0.00,Weather8,2013-01-21 02:13:00,
2013-01-20 21:18:00,38.3,14.9,29.78,NNW,337,6.7,8.9,38,0.00,,,0.00,Weather8,2013-01-21 02:18:00,
2013-01-20 21:23:00,38.2,15.3,29.79,NW,315,6.7,8.9,39,0.00,,,0.00,Weather8,2013-01-21 02:23:00,
2013-01-20 21:28:00,37.8,14.3,29.79,NW,315,9.2,9.2,38,0.00,,,0.00,Weather8,2013-01-21 02:28:00,
2013-01-20 21:33:00,37.8,14.9,29.79,NW,315,5.4,9.2,39,0.00,,,0.00,Weather8,2013-01-21 02:33:00,
2013-01-20 21:38:00,37.6,14.9,29.79,NW,315,4.7,9.2,39,0.00,,,0.00,Weather8,2013-01-21 02:38:00,
2013-01-20 21:43:00,37.3,15.1,29.79,WNW,292,4.0,8.3,40,0.00,,,0.00,Weather8,2013-01-21 02:43:00,
2013-01-20 21:48:00,37.1,14.9,29.79,NW,315,9.8,9.8,40,0.00,,,0.00,Weather8,2013-01-21 02:48:00,
2013-01-20 21:53:00,37.1,14.9,29.80,WNW,292,2.9,9.8,40,0.00,,,0.00,Weather8,2013-01-21 02:53:00,
2013-01-20 21:58:00,36.9,15.3,29.80,SW,225,2.5,9.8,41,0.00,,,0.00,Weather8,2013-01-21 02:58:00,
2013-01-20 22:03:00,36.7,15.2,29.80,NW,315,4.3,4.9,41,0.00,,,0.00,Weather8,2013-01-21 03:03:00,
2013-01-20 22:08:00,36.5,15.0,29.80,NW,315,3.8,5.1,41,0.00,,,0.00,Weather8,2013-01-21 03:08:00,
2013-01-20 22:13:00,36.4,14.9,29.81,NNW,337,4.5,5.1,41,0.00,,,0.00,Weather8,2013-01-21 03:13:00,
2013-01-20 22:18:00,36.2,15.2,29.81,NNW,337,2.5,4.7,42,0.00,,,0.00,Weather8,2013-01-21 03:18:00,
2013-01-20 22:23:00,36.0,14.5,29.82,North,0,4.0,4.5,41,0.00,,,0.00,Weather8,2013-01-21 03:23:00,
2013-01-20 22:28:00,35.8,14.4,29.82,WNW,292,3.6,4.3,41,0.00,,,0.00,Weather8,2013-01-21 03:28:00,
2013-01-20 22:34:00,35.6,14.8,29.82,NW,315,2.9,4.3,42,0.00,,,0.00,Weather8,2013-01-21 03:34:00,
2013-01-20 22:39:00,35.6,14.8,29.82,NW,315,1.1,5.1,42,0.00,,,0.00,Weather8,2013-01-21 03:39:00,
2013-01-20 22:44:00,35.5,14.6,29.82,WNW,292,4.0,5.1,42,0.00,,,0.00,Weather8,2013-01-21 03:44:00,
2013-01-20 22:49:00,35.3,14.4,29.83,NW,315,3.6,5.1,42,0.00,,,0.00,Weather8,2013-01-21 03:49:00,
2013-01-20 22:54:00,35.1,14.2,29.83,West,270,2.5,4.9,42,0.00,,,0.00,Weather8,2013-01-21 03:54:00,
2013-01-20 22:59:00,34.9,14.6,29.83,NW,315,4.5,4.5,43,0.00,,,0.00,Weather8,2013-01-21 03:59:00,
2013-01-20 23:04:00,34.7,14.4,29.83,NNW,337,2.7,4.5,43,0.00,,,0.00,Weather8,2013-01-21 04:04:00,
2013-01-20 23:09:00,34.7,14.4,29.83,WNW,292,2.5,4.7,43,0.00,,,0.00,Weather8,2013-01-21 04:09:00,
2013-01-20 23:14:00,34.6,14.2,29.84,NNW,337,4.9,5.4,43,0.00,,,0.00,Weather8,2013-01-21 04:14:00,
2013-01-20 23:19:00,34.4,14.0,29.84,NW,315,3.1,5.4,43,0.00,,,0.00,Weather8,2013-01-21 04:19:00,
2013-01-20 23:24:00,34.2,14.0,29.84,NW,315,2.7,6.7,43,0.00,,,0.00,Weather8,2013-01-21 04:24:00,
2013-01-20 23:29:00,34.2,14.0,29.84,WNW,292,1.8,6.7,43,0.00,,,0.00,Weather8,2013-01-21 04:29:00,
2013-01-20 23:34:00,34.0,13.8,29.83,NNW,337,4.0,6.7,43,0.00,,,0.00,Weather8,2013-01-21 04:34:00,
2013-01-20 23:39:00,33.8,14.0,29.83,NNW,337,4.5,6.5,44,0.00,,,0.00,Weather8,2013-01-21 04:39:00,
2013-01-20 23:44:00,33.8,14.0,29.84,NW,315,6.3,6.5,44,0.00,,,0.00,Weather8,2013-01-21 04:44:00,
2013-01-20 23:49:00,33.5,14.2,29.84,NNW,337,2.5,6.3,45,0.00,,,0.00,Weather8,2013-01-21 04:49:00,
2013-01-20 23:54:00,33.5,14.2,29.84,WNW,292,4.0,6.3,45,0.00,,,0.00,Weather8,2013-01-21 04:54:00,
2013-01-20 23:59:00,33.5,14.8,29.84,NW,315,3.8,5.6,46,0.00,,,0.00,Weather8,2013-01-21 04:59:00,